Location: Milano
(45.4670°N, 9.2000°E)
Time: 20:58:29
(UTC+02:00)

ISS - Pass Details

Date: 17 May 2021
Orbit: 417 x 422 km, 51.6° (Epoch: 14 June)

Event Time Altitude Azimuth Distance (km) Brightness Sun altitude
Rises 23:39:10 0° 275° (W) 2,363 0.5 -21.1°
Reaches altitude 10° 23:41:26 10° 287° (WNW) 1,502 -0.4 -21.3°
Maximum altitude 23:44:27 30° 351° (N) 781 -1.8 -21.5°
Drops below altitude 10° 23:47:30 10° 55° (NE) 1,506 -0.8 -21.7°
Enters shadow 23:49:33 - 65° (ENE) 2,285 0.0 -21.8°
